sat.trackr.live / text

‹ back to catalog

STARLINK-2713

NORAD 48602 · 2021-041BB

PAYLOAD ACTIVE UNKNOWN

§ Identity

Operator
Country
US
Launch date
2021-05-15
Launch site
AFETR
Launch vehicle
Mass (kg)
RCS (m²)

Purposes: comms

External: N2YO · Heavens-Above · Gunter

§ Orbital elements

Epoch: 2026-05-25T05:07:53.351616Z

Period
94.01 min
Inclination
53.1576°
Eccentricity
0.0001294
Mean motion
15.31704842 rev/d
Perigee alt
469.8 km
Apogee alt
471.6 km
Semi-major
6,848.9 km
B*
4.5531e-5
RAAN
117.9156°
Arg perigee
89.5415°
Mean anomaly
270.5735°
Rev number
27,843

§ Raw data

STARLINK-27131 48602U 21041BB  26145.21381194  .00001048  00000+0  45531-4 0  99992 48602  53.1576 117.9156 0001294  89.5415 270.5735 15.31704842278435

JSON: /api/v1/satellites/48602 · /tle

For live sub-satellite position, see the globe view (requires WebGL).

§ Visibility from observer

Set your observer location to see the next 7 days of passes ≥ 10°. The values pass through the URL so the page stays shareable.

No JS? Fill the form by hand. The geolocation button needs JavaScript.